Blythe, CA

9:01 AM PDT on July 23, 2016 (GMT -0700)
Blythe

Weather History for KBLH - August, 2014

Change the Weather History Date:

Monday, August 11, 2014

  Actual Average Record
Temperature  
Mean Temperature 98 °F -  
Max Temperature 109 °F 106 °F 115 °F (2003)
Min Temperature 87 °F 80 °F 71 °F (1999)
Cooling Degree Days 32    
Growing Degree Days 48 (Base 50)    
Moisture  
Dew Point 57 °F    
Average Humidity 26    
Maximum Humidity 39    
Minimum Humidity 17    
Precipitation  
Precipitation 0.00 in - - ()
Sea Level Pressure  
Sea Level Pressure 29.79 in    
Wind  
Wind Speed 9 mph (SSW)    
Max Wind Speed 13 mph    
Max Gust Speed 18 mph    
Visibility 10 miles    
Events      
Averages and records for this station are not official NWS values.
T = Trace of Precipitation, MM = Missing Value Source: NWS Daily Summary

Daily Weather History Graph

Daily Weather History Graph

Search for Another Location

Airport or City:

Trip Planner

Search our weather history database for the weather conditions in past years. The results will help you decide how hot, cold, wet, or windy it might be!

Date:

Astronomy

Aug. 11, 2014 Rise Set
Actual Time 5:58 AM PDT 7:29 PM PDT
Civil Twilight 5:31 AM PDT 7:55 PM PDT
Nautical Twilight 4:59 AM PDT 8:27 PM PDT
Astronomical Twilight 4:26 AM PDT 9:00 PM PDT
Moon 8:08 PM PDT (8/11) 7:02 AM PDT (8/11)
Length of Visible Light 14h 24m
Length of Day
13h 31m
Full, 98% of the Moon is Illuminated
Aug 11
Full
Aug 17
Last Quarter
Aug 25
New
Sep 2
First Quarter
Sep 8
Full

Hourly Weather History & Observations

Time (PDT) Temp. Heat Index Dew Point Humidity Pressure Visibility Wind Dir Wind Speed Gust Speed Precip Events Conditions
12:52 AM 96.1 °F 94.5 °F 55.9 °F 26% 29.81 in 10.0 mi WSW 12.7 mph - N/A   Clear
1:52 AM 91.0 °F 90.0 °F 57.9 °F 33% 29.80 in 10.0 mi SSW 5.8 mph - N/A   Clear
2:52 AM 90.0 °F 87.7 °F 54.0 °F 29% 29.80 in 10.0 mi SSW 4.6 mph - N/A   Clear
3:52 AM 89.1 °F 86.9 °F 54.0 °F 30% 29.80 in 10.0 mi South 8.1 mph - N/A   Clear
4:52 AM 88.0 °F 86.5 °F 55.9 °F 34% 29.80 in 10.0 mi South 9.2 mph - N/A   Clear
5:52 AM 87.1 °F 85.9 °F 57.0 °F 36% 29.81 in 10.0 mi SSE 8.1 mph - N/A   Clear
6:52 AM 87.1 °F 86.5 °F 59.0 °F 39% 29.83 in 10.0 mi South 10.4 mph - N/A   Partly Cloudy
7:52 AM 90.0 °F 90.3 °F 62.1 °F 39% 29.85 in 10.0 mi South 10.4 mph - N/A   Partly Cloudy
8:52 AM 91.9 °F 92.5 °F 62.1 °F 37% 29.86 in 10.0 mi South 9.2 mph - N/A   Partly Cloudy
9:52 AM 96.1 °F 95.2 °F 57.9 °F 28% 29.86 in 10.0 mi SSE 9.2 mph - N/A   Mostly Cloudy
10:52 AM 99.0 °F 96.5 °F 53.1 °F 21% 29.86 in 10.0 mi South 6.9 mph - N/A   Clear
11:52 AM 100.9 °F - 52.0 °F 19% 29.85 in 10.0 mi Variable 6.9 mph - N/A   Clear
12:52 PM 102.9 °F 101.4 °F 54.0 °F 20% 29.83 in 10.0 mi Variable 3.5 mph - N/A   Clear
1:52 PM 105.1 °F 103.3 °F 54.0 °F 18% 29.81 in 10.0 mi Variable 3.5 mph - N/A   Clear
2:52 PM 106.0 °F 104.5 °F 54.0 °F 18% 29.78 in 10.0 mi South 8.1 mph 18.4 mph N/A   Clear
3:52 PM 107.1 °F 105.4 °F 54.0 °F 17% 29.74 in 10.0 mi South 8.1 mph - N/A   Clear
4:52 PM 108.0 °F 106.6 °F 55.0 °F 17% 29.72 in 10.0 mi SSE 12.7 mph - N/A   Clear
5:52 PM 108.0 °F 106.6 °F 55.0 °F 17% 29.71 in 10.0 mi SSE 12.7 mph - N/A   Clear
6:52 PM 107.1 °F 106.7 °F 57.0 °F 19% 29.72 in 10.0 mi SSW 11.5 mph - N/A   Clear
7:52 PM 105.1 °F 104.4 °F 57.0 °F 20% 29.74 in 10.0 mi WSW 8.1 mph - N/A   Clear
8:52 PM 102.9 °F 104.2 °F 61.0 °F 25% 29.76 in 10.0 mi WSW 10.4 mph - N/A   Clear
9:52 PM 100.9 °F 102.1 °F 61.0 °F 27% 29.76 in 10.0 mi WSW 9.2 mph - N/A   Clear
10:52 PM 100.0 °F 101.8 °F 62.1 °F 29% 29.78 in 10.0 mi SW 9.2 mph - N/A   Clear
11:52 PM 98.1 °F 99.1 °F 62.1 °F 30% 29.79 in 10.0 mi SW 6.9 mph - N/A   Clear